This is the latest recevied weather packets stored in our database for station/object OE3APM-13. If no packets are shown the sender has not sent any weather packets the latest 1 day(s).
| Time | Temp. | Humidity | Pressure | Rain* | Wind** | Luminosity | Snow |
|---|---|---|---|---|---|---|---|
| 1777961126 | 13.89° C | 65% | 1009.2 hPa | 0 mm | 0.89 m/s, 26° | 359 W/m² | - |
| 1777960828 | 13.33° C | 69% | 1009.2 hPa | 0 mm | 0.89 m/s, 27° | 341 W/m² | - |
| 1777960525 | 13.33° C | 71% | 1009 hPa | 0 mm | 0.89 m/s, 27° | 329 W/m² | - |
| 1777960222 | 12.78° C | 74% | 1009 hPa | 0 mm | 0.89 m/s, 30° | 299 W/m² | - |
| 1777959923 | 12.22° C | 75% | 1009 hPa | 0 mm | 0.89 m/s, 32° | 302 W/m² | - |
| 1777959622 | 11.67° C | 76% | 1009.2 hPa | 0 mm | 0.89 m/s, 35° | 285 W/m² | - |
| 1777959322 | 11.11° C | 76% | 1009.2 hPa | 0 mm | 0.45 m/s, 33° | 274 W/m² | - |
| 1777959027 | 10.56° C | 78% | 1009.2 hPa | 0 mm | 0 m/s | 258 W/m² | - |
| 1777958720 | 10° C | 78% | 1009.2 hPa | 0 mm | 0.45 m/s, 38° | 250 W/m² | - |
| 1777958419 | 9.44° C | 79% | 1009 hPa | 0 mm | 0.45 m/s, 38° | 232 W/m² | - |
| 1777958119 | 8.89° C | 82% | 1009 hPa | 0 mm | 0.45 m/s, 51° | 214 W/m² | - |
| 1777957819 | 8.33° C | 83% | 1009.2 hPa | 0 mm | 0.45 m/s, 40° | 199 W/m² | - |
| 1777957520 | 8.33° C | 82% | 1009.2 hPa | 0 mm | 0.89 m/s, 36° | 176 W/m² | - |
| 1777957220 | 7.78° C | 83% | 1009.2 hPa | 0 mm | 0.45 m/s, 42° | 156 W/m² | - |
| 1777956919 | 7.78° C | 84% | 1009.2 hPa | 0 mm | 0.45 m/s, 43° | 153 W/m² | - |
| 1777956621 | 7.22° C | 83% | 1009.3 hPa | 0 mm | 0.45 m/s, 43° | 130 W/m² | - |
| 1777956319 | 7.22° C | 83% | 1009.3 hPa | 0 mm | 0 m/s | 60 W/m² | - |
| 1777956016 | 7.22° C | 82% | 1009.2 hPa | 0 mm | 0 m/s | 60 W/m² | - |
| 1777955705 | 7.22° C | 81% | 1009.3 hPa | 0 mm | 0 m/s | 49 W/m² | - |
| 1777955401 | 7.22° C | 80% | 1009.3 hPa | 0 mm | 0 m/s | 30 W/m² | - |
| 1777955101 | 7.78° C | 79% | 1009.3 hPa | 0 mm | 0 m/s | 33 W/m² | - |
| 1777954804 | 7.78° C | 78% | 1009.3 hPa | 0 mm | 0 m/s | 11 W/m² | - |
| 1777954501 | 7.78° C | 78% | 1009.3 hPa | 0 mm | 0 m/s | 7 W/m² | - |
| 1777954201 | 7.78° C | 77% | 1009.3 hPa | 0 mm | 0 m/s | 0 W/m² | - |
| 1777953901 | 8.33° C | 77% | 1009.2 hPa | 0 mm | 0 m/s | 0 W/m² | - |
* Rain latest hour (hover to see other rain measurements)
** Current wind speed in m/s (hover to see current wind gust speed)